• In Uzbekistan
  • List of Countries
  • For 7 days
  • Water Temperature
  • Satellite Maps
  • Weather Map
  • Weather Widgets
  • user-avatar
    Login

    Hourly Weather Klagenfurt

    Today, 21 July, Friday

    Time Temperature Precipitation Wind Pressure Humidity
    00:00 +18°C° 0.3 mm 1 mps 689 mmHg 89%
    01:00 +17°C° 0 mm 2 mps 689 mmHg 89%
    02:00 +16°C° 0.8 mm 1 mps 689 mmHg 90%
    03:00 +15°C° 0.8 mm 1 mps 689 mmHg 92%
    04:00 +15°C° 0.8 mm 1 mps 689 mmHg 93%
    05:00 +16°C° 0.3 mm 1 mps 690 mmHg 89%
    06:00 +19°C° 0.3 mm 1 mps 690 mmHg 85%
    07:00 +20°C° 0.3 mm 1 mps 691 mmHg 81%
    08:00 +22°C° 0.2 mm 1 mps 691 mmHg 72%
    09:00 +25°C° 0.2 mm 1 mps 692 mmHg 62%
    10:00 +27°C° 0.2 mm 1 mps 692 mmHg 53%
    11:00 +28°C° 0.2 mm 1 mps 692 mmHg 51%
    12:00 +28°C° 0.2 mm 1 mps 692 mmHg 48%
    13:00 +29°C° 0.2 mm 2 mps 692 mmHg 46%
    14:00 +29°C° 0.1 mm 2 mps 691 mmHg 45%
    15:00 +29°C° 0.1 mm 2 mps 691 mmHg 43%
    16:00 +29°C° 0.1 mm 2 mps 691 mmHg 42%
    17:00 +27°C° 0.1 mm 2 mps 691 mmHg 51%
    18:00 +25°C° 0.1 mm 1 mps 690 mmHg 60%
    19:00 +23°C° 0.1 mm 1 mps 690 mmHg 69%
    20:00 +22°C° 0 mm 1 mps 689 mmHg 71%
    21:00 +20°C° 0 mm 1 mps 689 mmHg 74%
    22:00 +19°C° 0 mm 1 mps 689 mmHg 76%
    23:00 +19°C° 0 mm 1 mps 689 mmHg 76%

    Tomorrow, 22 July, Saturday

    Time Temperature Precipitation Wind Pressure Humidity
    00:00 +18°C° 0 mm 1 mps 689 mmHg 76%
    01:00 +18°C° 0 mm 1 mps 689 mmHg 75%
    02:00 +16°C° 0 mm 1 mps 689 mmHg 75%
    03:00 +16°C° 0 mm 1 mps 689 mmHg 75%
    04:00 +15°C° 0 mm 1 mps 689 mmHg 75%
    05:00 +16°C° 0.2 mm 0 mps 689 mmHg 72%
    06:00 +18°C° 0.2 mm 0 mps 689 mmHg 70%
    07:00 +19°C° 0.2 mm 0 mps 690 mmHg 67%
    08:00 +23°C° 0 mm 1 mps 690 mmHg 60%
    09:00 +26°C° 0 mm 1 mps 691 mmHg 53%
    10:00 +28°C° 0 mm 1 mps 691 mmHg 47%
    11:00 +28°C° 0.1 mm 2 mps 691 mmHg 46%
    12:00 +29°C° 0.1 mm 2 mps 691 mmHg 46%
    13:00 +29°C° 0.1 mm 2 mps 691 mmHg 46%
    14:00 +29°C° 0.1 mm 2 mps 691 mmHg 48%
    15:00 +29°C° 0.1 mm 2 mps 691 mmHg 49%
    16:00 +28°C° 0.1 mm 2 mps 691 mmHg 51%
    17:00 +27°C° 0.4 mm 2 mps 691 mmHg 60%
    18:00 +25°C° 0.4 mm 1 mps 690 mmHg 69%
    19:00 +23°C° 0.4 mm 1 mps 690 mmHg 78%
    20:00 +22°C° 0.2 mm 1 mps 690 mmHg 81%
    21:00 +20°C° 0.2 mm 1 mps 690 mmHg 85%
    22:00 +19°C° 0.2 mm 1 mps 690 mmHg 89%
    23:00 +19°C° 0 mm 1 mps 690 mmHg 90%

    Day after tomorrow, 23 July, Sunday

    Time Temperature Precipitation Wind Pressure Humidity
    00:00 +18°C° 0 mm 1 mps 690 mmHg 91%
    01:00 +18°C° 0 mm 1 mps 690 mmHg 91%
    02:00 +16°C° 0 mm 1 mps 690 mmHg 92%
    03:00 +16°C° 0 mm 1 mps 690 mmHg 92%
    04:00 +16°C° 0 mm 1 mps 689 mmHg 92%
    05:00 +18°C° 0 mm 1 mps 690 mmHg 87%
    06:00 +20°C° 0 mm 1 mps 690 mmHg 82%
    07:00 +20°C° 0 mm 0 mps 691 mmHg 77%
    08:00 +24°C° 0.2 mm 1 mps 691 mmHg 72%
    09:00 +25°C° 0.2 mm 1 mps 691 mmHg 66%
    10:00 +27°C° 0.2 mm 1 mps 691 mmHg 60%
    11:00 +28°C° 0.8 mm 1 mps 691 mmHg 60%
    12:00 +28°C° 0.8 mm 1 mps 691 mmHg 60%
    13:00 +28°C° 0.8 mm 1 mps 691 mmHg 60%
    14:00 +28°C° 1.1 mm 1 mps 691 mmHg 61%
    15:00 +27°C° 1.1 mm 1 mps 691 mmHg 63%
    16:00 +27°C° 1.1 mm 1 mps 690 mmHg 65%
    17:00 +25°C° 1 mm 1 mps 690 mmHg 71%
    18:00 +24°C° 1 mm 1 mps 690 mmHg 77%
    19:00 +22°C° 1 mm 1 mps 690 mmHg 83%
    20:00 +21°C° 0.6 mm 1 mps 690 mmHg 86%
    21:00 +18°C° 0.6 mm 0 mps 690 mmHg 89%
    22:00 +17°C° 0.6 mm 0 mps 690 mmHg 92%
    23:00 +18°C° 0.4 mm 1 mps 689 mmHg 93%

    24 July, Monday

    Time Temperature Precipitation Wind Pressure Humidity
    00:00 +18°C° 0.4 mm 1 mps 689 mmHg 94%
    01:00 +18°C° 0.4 mm 1 mps 689 mmHg 95%
    02:00 +18°C° 0.8 mm 1 mps 688 mmHg 95%
    03:00 +18°C° 0.8 mm 1 mps 688 mmHg 96%
    04:00 +18°C° 0.8 mm 1 mps 688 mmHg 96%
    05:00 +18°C° 1.4 mm 1 mps 688 mmHg 95%
    06:00 +18°C° 1.4 mm 1 mps 687 mmHg 95%
    07:00 +19°C° 1.4 mm 1 mps 687 mmHg 94%
    08:00 +19°C° 1.1 mm 1 mps 687 mmHg 94%
    09:00 +18°C° 1.1 mm 2 mps 687 mmHg 93%
    10:00 +18°C° 1.1 mm 2 mps 686 mmHg 92%
    11:00 +19°C° 1.6 mm 2 mps 686 mmHg 91%
    12:00 +19°C° 1.6 mm 2 mps 685 mmHg 90%
    13:00 +19°C° 1.6 mm 2 mps 685 mmHg 88%
    14:00 +20°C° 0.8 mm 1 mps 685 mmHg 88%
    15:00 +21°C° 0.8 mm 1 mps 684 mmHg 88%
    16:00 +21°C° 0.8 mm 1 mps 684 mmHg 89%
    17:00 +20°C° 2.2 mm 1 mps 684 mmHg 90%
    18:00 +19°C° 2.2 mm 1 mps 684 mmHg 92%
    19:00 +17°C° 2.2 mm 2 mps 684 mmHg 94%
    20:00 +16°C° 3.1 mm 2 mps 684 mmHg 94%
    21:00 +15°C° 3.1 mm 2 mps 684 mmHg 95%
    22:00 +14°C° 3.1 mm 2 mps 684 mmHg 95%
    23:00 +13°C° 0.3 mm 2 mps 684 mmHg 95%

    25 July, Tuesday

    Time Temperature Precipitation Wind Pressure Humidity
    00:00 +12°C° 0.3 mm 2 mps 684 mmHg 95%
    01:00 +12°C° 0.3 mm 1 mps 683 mmHg 94%
    02:00 +12°C° 0 mm 1 mps 683 mmHg 94%
    03:00 +11°C° 0 mm 1 mps 684 mmHg 93%
    04:00 +11°C° 0 mm 1 mps 684 mmHg 92%
    05:00 +12°C° 0 mm 1 mps 684 mmHg 90%
    06:00 +13°C° 0 mm 1 mps 684 mmHg 88%
    07:00 +14°C° 0 mm 1 mps 684 mmHg 85%
    08:00 +16°C° 0 mm 1 mps 685 mmHg 71%
    09:00 +20°C° 0 mm 1 mps 685 mmHg 57%
    10:00 +23°C° 0 mm 1 mps 686 mmHg 43%
    11:00 +23°C° 0.1 mm 1 mps 686 mmHg 42%
    12:00 +24°C° 0.1 mm 1 mps 686 mmHg 41%
    13:00 +25°C° 0.1 mm 1 mps 686 mmHg 40%
    14:00 +24°C° 0.4 mm 1 mps 685 mmHg 46%
    15:00 +23°C° 0.4 mm 1 mps 685 mmHg 51%
    16:00 +22°C° 0.4 mm 1 mps 685 mmHg 57%
    17:00 +20°C° 0.5 mm 1 mps 685 mmHg 65%
    18:00 +18°C° 0.5 mm 1 mps 685 mmHg 73%
    19:00 +16°C° 0.5 mm 1 mps 684 mmHg 81%
    20:00 +14°C° 0.2 mm 1 mps 684 mmHg 83%
    21:00 +13°C° 0.2 mm 1 mps 685 mmHg 86%
    22:00 +12°C° 0.2 mm 1 mps 685 mmHg 88%
    23:00 +12°C° 0 mm 1 mps 685 mmHg 89%

    26 July, Wednesday

    Time Temperature Precipitation Wind Pressure Humidity
    00:00 +11°C° 0 mm 1 mps 685 mmHg 89%
    01:00 +11°C° 0 mm 1 mps 685 mmHg 90%
    02:00 +11°C° 0 mm 1 mps 685 mmHg 90%
    03:00 +10°C° 0 mm 1 mps 685 mmHg 90%
    04:00 +10°C° 0 mm 1 mps 685 mmHg 90%
    05:00 +12°C° 0 mm 1 mps 685 mmHg 86%
    06:00 +13°C° 0 mm 1 mps 686 mmHg 83%
    07:00 +14°C° 0 mm 1 mps 686 mmHg 80%
    08:00 +18°C° 0 mm 1 mps 687 mmHg 70%
    09:00 +20°C° 0 mm 1 mps 687 mmHg 61%
    10:00 +22°C° 0 mm 1 mps 688 mmHg 52%
    11:00 +23°C° 0.1 mm 1 mps 688 mmHg 49%
    12:00 +25°C° 0.1 mm 1 mps 688 mmHg 46%
    13:00 +26°C° 0.1 mm 1 mps 688 mmHg 44%
    14:00 +25°C° 0.1 mm 1 mps 688 mmHg 45%
    15:00 +25°C° 0.1 mm 1 mps 688 mmHg 46%
    16:00 +24°C° 0.1 mm 1 mps 688 mmHg 47%
    17:00 +22°C° 0.1 mm 1 mps 688 mmHg 55%
    18:00 +21°C° 0.1 mm 1 mps 688 mmHg 62%
    19:00 +17°C° 0.1 mm 0 mps 688 mmHg 70%
    20:00 +18°C° 0 mm 1 mps 688 mmHg 73%
    21:00 +15°C° 0 mm 1 mps 688 mmHg 75%
    22:00 +14°C° 0 mm 1 mps 689 mmHg 78%
    23:00 +13°C° 0 mm 1 mps 689 mmHg 80%
    Show more